User: anonymous   Login
Location: Fort Wayne
(41.1310°N, 85.1290°W)
Time: 04:03:36
(UTC-04:00)
Language:

OPAL - Orbit

View from above orbital plane
View from above orbital plane
View from above satellite
View from above satellite

Ground track
Ground track

The orbit data is extracted from the following two-line orbital elements,

1 26063U 00004C   18171.69909883 -.00000026 +00000-0 +11265-4 0  9999
2 26063 100.1911 248.3020 0036302 350.9281 009.1239 14.36700069964293
Epoch (UTC): 20 June 2018 16:46:42
Eccentricity: 0.0036302
inclination: 100.1911°
perigee height: 743 km
apogee height: 795 km
right ascension of ascending node: 248.3020°
argument of perigee: 350.9281°
revolutions per day: 14.36700069
mean anomaly at epoch: 9.1239°
orbit number at epoch: 96429

The dashed part of the orbit path shows where the satellite is in the earth's shadow,  

DLR